Regional Weather Roundup
Issued by NWS Mobile, AL

Home | Current Version | Previous Version | Text Only | Print | Product List | Glossary On
Versions: 1 2 3 4 5 6 7 8 9 10 11 12 13 14 15 16 17 18 19 20 21 22 23 24 25 26 27 28
000
ASUS44 KMOB 242013
RWRMOB
REGIONAL WEATHER ROUNDUP
NATIONAL WEATHER SERVICE MOBILE AL
200 PM CST FRI FEB 24 2017

NOTE: "FAIR" INDICATES FEW OR NO CLOUDS BELOW 12,000 FEET WITH NO
      SIGNIFICANT WEATHER AND/OR OBSTRUCTIONS TO VISIBILITY.

  * THESE STATIONS ARE PART OF THE UNIVERSITY OF SOUTH ALABAMA
    MESONET AND ARE NOT UNDER NWS OR FAA QUALITY CONTROL.

ALZ061>064-242100-
COASTAL ALABAMA

CITY           SKY/WX    TMP DP  RH WIND       PRES   REMARKS
MOBILE REG APT PTSUNNY   76  61  59 S14       29.83F
BROOKLEY FIELD PTSUNNY   71  66  84 S9        29.85F
USA CAMPUS*    NOT AVBL
DOG RIVER*     NOT AVBL


CITY           SKY/WX    TMP DP  RH WIND       PRES   REMARKS
GULF SHORES    MOSUNNY   73  67  81 S9        29.84F

$$

ALZ051>060-242100-
INTERIOR SOUTHWEST AND SOUTH CENTRAL ALABAMA

CITY           SKY/WX    TMP DP  RH WIND       PRES   REMARKS
GREENVILLE     MOSUNNY   78  55  44 S7        29.80F
EVERGREEN      MOSUNNY   79  59  50 S12       29.81F
ATMORE*        NOT AVBL
ANDALUSIA/OPP  MOSUNNY   83  57  41 SW9G20    29.81F
ANDALUSIA*     NOT AVBL
FLORALA APT    MOSUNNY   80  57  45 S10G20    29.83F
FLORALA*       NOT AVBL

$$

FLZ001>006-242100-
WESTERN FLORIDA PANHANDLE

CITY           SKY/WX    TMP DP  RH WIND       PRES   REMARKS
PENSACOLA      MOSUNNY   76  65  68 S13       29.83F
NAS PENSACOLA  MOSUNNY   75  66  73 S10       29.83F
MILTON         MOSUNNY   77  63  61 S13       29.83F
WHTNG S FIELD  MOSUNNY   78  64  61 S9        29.83F


CITY           SKY/WX    TMP DP  RH WIND       PRES   REMARKS
JAY*           NOT AVBL
DUKE FIELD     MOSUNNY   78  59  52 S13       29.84R
CRESTVIEW      SUNNY     80  59  48 S9        29.84F
VALPARAISO     MOSUNNY   73  63  70 S7        29.84F
DESTIN         SUNNY     74  70  87 VRB5      29.84F

$$

MSZ076-079-242100-
INTERIOR SOUTHEAST MISSISSIPPI

CITY           SKY/WX    TMP DP  RH WIND       PRES   REMARKS
LEAKESVILLE*   NOT AVBL
AGRICOLA*      NOT AVBL

$$

MARINE OBSERVATIONS

STATION/POSITION TIME  TEMP    WIND        PRES    WAVE
                       AIR SEA DIR/SP/G            HT/PER
                 (UTC) (F)     (DEG/KT/KT) (MB)    (FT/S)
PASCAGOULA       1948   70     160/  9/ 10 1010.1F
PETIT BOIS ISLND 1948   71     150/  6/  7 1010.9F
GRAND BAY        1845   69     160/  5     1012.0S
KATRINA CUT      1930          160/  7     1010.2F
CEDAR POINT      1930   70     180/  6     1010.5F
E DAUPHIN ISLAND 1900   69     150/  6/  6 1010.5F
MIDDLE BAY LIGHT 1930   68     160/  7     1010.8F
USCG MOBILE BAY  1948   69 67  170/  6/ 12 1010.8F
STATE DOCKS      1948   69 64              1010.2F
MEAHER PARK      1930   67     180/  8     1009.8F
WEEKS BAY        1845   74                   N/A
FORT MORGAN      1948   70     170/  7/  8   N/A
12 S ORANGE BCH  1950   70 71  180/  2/  4 1010.4F   1
PENSACOLA BAY    1942   72 68  170/  5/  6 1010.7F
67 S FORT MORGAN 1930   71     200/ 12     1010.8S

$$

SELECTED LOCATIONS ACROSS THE REGION

CITY           SKY/WX    TMP DP  RH WIND       PRES   REMARKS
NEW ORLEANS    PTSUNNY   78  62  57 SW10      29.80F
GULFPORT       PTSUNNY   74  66  76 S8        29.81F
PASCAGOULA AP  PTSUNNY   75  62  64 S12       29.83F
PASCAGOULA*    NOT AVBL
HATTIESBURG    MOSUNNY   78  59  51 S13       29.77F
LAUREL         SUNNY     79  57  47 S16G23    29.78F
MERIDIAN       MOSUNNY   80  60  50 SW18G25   29.74F
JACKSON        MOSUNNY   79  56  45 S15G23    29.72F
MONTGOMERY     MOSUNNY   81  56  42 S12       29.79F
TROY           MOSUNNY   79  56  45 S7        29.82F
ASHFORD*       NOT AVBL
DOTHAN         SUNNY     80  55  42 SW6       29.85F
PANAMA CITY    SUNNY     76  61  59 S12       29.83S

$$





USA.gov is the U.S. government's official web portal to all federal, state and local government web resources and services.